Content
SEND FEEDBACK

Daily
Averages
Monthly
Summary
United States of America

KINGSTREE, SOUTH CAROLINA


Home > North America > United States > South Carolina
Elevation: 54 feet     Latitude: 33 39N     Longitude: 079 49W

WEATHER
 
SELECT A DAY
Number of Records: 128,292;   Date Range: 12/8/08 - 7/11/14
 
SHARE

PRINT THIS DATA

[ ← Previous Day ]
WEATHER ALMANAC - FEBRUARY 13, 2013
[ Next Day → ]
[ °C ]   °F
Weather ElementAverageHighLow
Temperature54.7 °F64.4 °F (3:15 pm)50 °F (1:35 am)
Dewpoint52.6 °F60.8 °F (12:55 pm)48.2 °F (11:55 pm)
Humidity93.2 %100 % (12:35 am)63 % (5:15 pm)
Barometer29.79 in29.91 in (12:55 am)29.68 in (2:15 pm)
Wind Speed6.1 mph16.1 mph (4:55 pm)
Wind Gust27.6 mph (6:15 pm)
Weather ElementAverage
Visibility7.9 mi
Wind DirectionSSE (142 °)

Weather ElementTotal
Precipitation0.82 in
Heating Degree Days7.8 (Base 65)
Growing Degree Days7.2 (Base 50)
Averaged from 69 records on February 13, 2013
WEATHER CONDITIONS BREAKOUT
WIND DIRECTION BREAKOUT
WEATHER BY HOUR - FEBRUARY 13, 2013
[ °C ]   °F
Local TimeTemperatureDewpointHumidityBarometerVisibilityWind DirectionWind SpeedGust SpeedPrecipitationEventsConditions
12:35 AM51.8 °F51.8 °F100 %29.89 in7.0 miNNE (20°)6.9 mph0.13 inRainHeavy Rain
12:55 AM51.8 °F51.8 °F100 %29.91 in2.0 miCalm0.35 inRainHeavy Rain
1:15 AM51.8 °F51.8 °F100 %29.90 in5.0 miCalm0.06 inRainRain
1:35 AM50.0 °F50.0 °F100 %29.90 in7.0 miNorth (10°)4.6 mph0.08 inRainRain
1:55 AM50.0 °F50.0 °F100 %29.88 in7.0 miNNE (20°)4.6 mph0.11 inRainLight Rain
2:15 AM50.0 °F50.0 °F100 %29.88 in10.0 miNE (50°)5.8 mphDrizzle
2:35 AM50.0 °F50.0 °F100 %29.85 in10.0 miENE (60°)5.8 mphLight Drizzle
2:55 AM50.0 °F50.0 °F100 %29.84 in10.0 miCalm0.01 inClear
3:15 AM50.0 °F50.0 °F100 %29.82 in10.0 miNE (50°)5.8 mphRainRain
3:35 AM50.0 °F50.0 °F100 %29.83 in4.0 miEast (100°)9.2 mphRainRain
3:55 AM50.0 °F50.0 °F100 %29.81 in5.0 miNNE (20°)4.6 mph0.03 inRainLight Rain
4:15 AM50.0 °F50.0 °F100 %29.80 in10.0 miNE (40°)3.5 mphDrizzle
4:35 AM50.0 °F50.0 °F100 %29.79 in10.0 miCalmLight Drizzle
4:55 AM50.0 °F50.0 °F100 %29.79 in10.0 miCalmClear
5:15 AM50.0 °F50.0 °F100 %29.79 in10.0 miCalmClear
5:35 AM50.0 °F50.0 °F100 %29.80 in10.0 miNorth (350°)3.5 mphClear
5:55 AM50.0 °F50.0 °F100 %29.80 in5.0 miCalmRainLight Rain
6:15 AM50.0 °F50.0 °F100 %29.80 in3.0 miCalmDrizzle
6:35 AM50.0 °F50.0 °F100 %29.79 in3.0 miENE (60°)3.5 mph0.01 inDrizzle
6:55 AM50.0 °F50.0 °F100 %29.78 in4.0 miENE (60°)4.6 mph0.01 inLight Drizzle
7:15 AM50.0 °F50.0 °F100 %29.79 in5.0 miENE (70°)4.6 mphClear
7:35 AM50.0 °F50.0 °F100 %29.76 in10.0 miEast (90°)8.1 mphClear
7:55 AM50.0 °F50.0 °F100 %29.76 in5.0 miENE (60°)3.5 mphClear
8:35 AM50.0 °F50.0 °F100 %29.81 in3.0 miCalmClear
8:55 AM51.8 °F51.8 °F100 %29.80 in1.8 miENE (70°)3.5 mphMist
9:15 AM51.8 °F51.8 °F100 %29.82 in1.5 miCalmMist
9:35 AM51.8 °F51.8 °F100 %29.80 in2.0 miCalmClear
9:55 AM51.8 °F51.8 °F100 %29.79 in1.8 miCalmMist
10:15 AM51.8 °F51.8 °F100 %29.79 in1.8 miCalmMist
10:35 AM51.8 °F51.8 °F100 %29.75 in1.0 miSE (130°)8.1 mphMist
11:15 AM53.6 °F53.6 °F100 %29.77 in2.5 miCalmClear
11:35 AM53.6 °F53.6 °F100 %29.75 in2.5 miSouth (170°)8.1 mphClear
11:55 AM55.4 °F55.4 °F100 %29.75 in3.0 miSouth (180°)5.8 mphClear
12:15 PM59.0 °F59.0 °F100 %29.74 in10.0 miSouth (190°)4.6 mphClear
12:35 PM59.0 °F59.0 °F100 %29.73 in10.0 miSSW (200°)6.9 mphClear
12:55 PM60.8 °F60.8 °F100 %29.71 in10.0 miSSW (210°)5.8 mphClear
1:15 PM60.8 °F60.8 °F100 %29.70 in10.0 miSSW (210°)9.2 mphClear
1:35 PM62.6 °F60.8 °F94 %29.71 in10.0 miSW (220°)6.9 mphClear
1:55 PM62.6 °F60.8 °F94 %29.71 in10.0 miSW (230°)12.7 mph21.9 mphClear
2:15 PM62.6 °F60.8 °F94 %29.68 in10.0 miSW (220°)8.1 mphClear
2:35 PM62.6 °F60.8 °F94 %29.70 in10.0 miSSW (210°)9.2 mphClear
2:55 PM62.6 °F60.8 °F94 %29.70 in10.0 miSW (220°)9.2 mph16.1 mphClear
3:15 PM64.4 °F60.8 °F88 %29.71 in10.0 miSW (220°)11.5 mphClear
3:35 PM64.4 °F55.4 °F73 %29.70 in10.0 miSW (230°)13.8 mph24.2 mphClear
3:55 PM64.4 °F53.6 °F68 %29.70 in10.0 miSW (230°)8.1 mph23.0 mphClear
4:15 PM64.4 °F55.4 °F73 %29.71 in10.0 miSW (230°)9.2 mph16.1 mphClear
4:35 PM62.6 °F53.6 °F72 %29.71 in10.0 miSW (230°)10.4 mphClear
4:55 PM62.6 °F51.8 °F68 %29.74 in10.0 miWSW (240°)16.1 mph21.9 mphClear
5:15 PM62.6 °F50.0 °F63 %29.76 in10.0 miSW (230°)12.7 mph21.9 mphClear
5:35 PM62.6 °F50.0 °F63 %29.74 in10.0 miWSW (250°)11.5 mph17.3 mphClear
5:55 PM60.8 °F50.0 °F68 %29.78 in10.0 miWSW (250°)13.8 mph20.7 mphRainLight Rain
6:15 PM59.0 °F50.0 °F72 %29.78 in10.0 miWest (260°)13.8 mph27.6 mphClear
6:35 PM55.4 °F50.0 °F82 %29.78 in10.0 miWest (260°)11.5 mph16.1 mphRainRain
6:55 PM55.4 °F51.8 °F88 %29.77 in10.0 miWest (260°)8.1 mphLight Drizzle
7:15 PM55.4 °F51.8 °F88 %29.76 in10.0 miCalm0.01 inRainLight Rain
7:35 PM55.4 °F51.8 °F88 %29.80 in10.0 miWSW (240°)6.9 mph0.01 inRainRain
7:55 PM53.6 °F53.6 °F100 %29.77 in10.0 miWSW (240°)6.9 mph0.01 inRainLight Rain
8:15 PM53.6 °F53.6 °F100 %29.81 in10.0 miWSW (240°)5.8 mphClear
8:35 PM53.6 °F51.8 °F94 %29.81 in10.0 miSW (230°)5.8 mphClear
8:55 PM53.6 °F51.8 °F94 %29.83 in10.0 miWSW (240°)8.1 mphClear
9:15 PM53.6 °F51.8 °F94 %29.82 in10.0 miWSW (250°)5.8 mphClear
9:35 PM53.6 °F51.8 °F94 %29.83 in10.0 miWSW (240°)6.9 mphClear
9:55 PM53.6 °F51.8 °F94 %29.83 in10.0 miSW (230°)8.1 mphClear
10:15 PM53.6 °F51.8 °F94 %29.84 in10.0 miWSW (240°)8.1 mphClear
10:35 PM53.6 °F51.8 °F94 %29.83 in10.0 miWSW (250°)9.2 mphClear
10:55 PM53.6 °F50.0 °F88 %29.85 in10.0 miWSW (250°)9.2 mphClear
11:15 PM53.6 °F50.0 °F88 %29.86 in10.0 miWSW (240°)8.1 mphClear
11:35 PM53.6 °F50.0 °F88 %29.87 in10.0 miWSW (250°)9.2 mphClear
11:55 PM53.6 °F48.2 °F82 %29.88 in10.0 miWSW (250°)6.9 mphClear
Hourly data recorded from KCKI, located miles away from Kingstree, South Carolina







STORIES FROM OUR PARTNERS